Wind_Speed
25 23 22 21 20 20 20 20 19 19 19 20 20 20 19 19 20 20 20 20 19 18 18 19 19 19 20 22 26 29 31 31 30 30 30 31 32 33 33 34 35 35 34 34 33 33 34 34 32 30 29 29 30 29 30 32 33 33 34 33 33 34 35 35 34 33 32 30 27
25 24 22 21 20 20 20 20 19 18 19 20 20 19 19 19 19 19 19 20 19 18 18 18 19 19 19 21 24 27 29 30 30 29 30 31 32 32 33 33 33 34 34 34 33 33 33 33 31 30 29 29 29 29 30 32 33 33 33 32 31 32 34 34 33 33 33 31 29
25 24 23 23 22 22 21 20 20 20 20 20 19 19 18 18 19 18 19 19 19 18 18 18 19 19 20 21 23 25 28 29 29 29 30 31 32 32 33 33 33 33 34 34 34 33 32 32 31 30 29 28 28 29 31 32 33 34 34 33 30 30 31 31 31 32 32 32 31
25 24 24 24 25 24 23 21 20 20 20 19 19 19 18 18 18 18 18 18 18 18 18 18 18 19 20 21 23 25 26 28 29 30 30 30 31 32 32 32 32 33 33 34 34 33 33 32 31 30 30 29 28 29 31 32 33 34 34 34 31 29 28 29 29 29 30 32 31
25 25 25 25 26 25 24 22 21 20 20 19 19 18 18 18 17 17 17 18 18 18 18 18 18 18 19 21 23 24 25 27 27 28 28 29 30 32 33 33 32 33 33 34 34 34 34 33 31 30 29 30 30 31 32 32 33 33 33 34 32 31 29 28 27 27 28 29 31
25 26 25 24 25 25 24 23 21 21 20 19 18 18 18 18 17 17 17 17 18 17 17 18 18 18 19 20 22 24 25 26 27 28 28 28 29 30 32 33 33 32 33 34 34 34 34 34 32 30 29 29 31 32 31 31 31 32 33 33 34 32 30 29 28 26 25 26 27
25 26 25 24 25 25 24 23 22 21 20 19 19 19 19 18 17 17 17 17 17 17 17 18 18 18 19 20 22 24 25 26 27 28 28 28 28 29 30 32 32 33 33 34 35 35 34 34 31 30 30 30 30 31 32 32 32 31 31 32 33 32 31 31 29 28 27 27 25
25 26 25 25 25 25 25 24 22 21 21 20 19 19 19 18 18 18 17 16 16 16 18 20 20 19 19 20 21 22 24 25 26 27 28 28 28 28 29 30 31 32 32 33 34 35 34 33 31 29 29 30 30 31 33 35 33 30 29 29 30 30 30 30 30 30 30 29 26
24 25 26 25 25 25 25 24 23 22 21 20 19 19 19 18 18 17 17 15 15 17 20 20 20 19 18 19 20 21 22 23 25 26 27 27 27 27 28 28 30 31 32 32 34 34 33 32 30 29 30 31 31 31 33 36 34 31 29 28 27 28 29 29 30 31 31 32 29
22 25 26 25 25 25 25 24 23 23 22 20 19 19 19 18 17 16 16 15 16 17 19 19 20 20 19 19 20 20 20 21 23 24 25 26 26 27 27 27 28 30 30 31 33 33 32 31 30 29 30 32 32 32 34 36 36 34 31 27 27 27 28 28 29 31 32 32 31
21 23 24 24 25 24 24 24 23 22 21 20 20 19 19 18 17 16 15 16 17 18 19 20 20 21 20 20 20 20 20 20 21 22 24 25 24 25 26 26 27 28 29 30 31 32 32 30 30 30 31 32 32 33 34 36 37 36 33 29 28 28 28 28 28 30 33 32 31
20 21 23 24 24 24 23 23 22 21 20 19 20 20 19 17 17 16 16 17 18 19 20 21 21 21 20 20 19 20 20 20 20 21 22 24 25 25 25 26 26 27 27 28 30 31 31 30 30 30 31 33 32 32 33 36 37 37 36 34 31 30 29 30 30 31 32 32 31
20 20 21 23 24 24 23 22 21 20 19 19 19 19 18 17 17 17 18 18 18 19 20 21 21 20 20 20 20 20 19 19 19 20 21 23 24 25 25 25 25 26 26 27 29 31 31 31 31 31 32 33 32 32 34 36 38 38 38 36 34 32 32 33 32 32 31 31 31
20 20 20 22 23 23 23 22 20 19 18 19 18 18 17 17 17 18 18 18 19 19 19 20 20 20 20 20 20 20 19 19 19 19 20 22 23 24 25 25 25 26 27 28 30 31 32 32 32 32 33 33 33 33 34 37 38 38 38 37 35 34 33 33 33 31 30 30 31
20 20 20 21 21 22 21 20 19 18 18 18 18 17 16 17 18 19 19 19 19 19 18 19 19 19 19 20 20 20 19 19 19 19 19 21 22 23 24 25 26 27 28 29 31 32 33 33 33 33 34 34 34 34 34 36 38 38 37 36 36 34 33 33 33 32 31 30 30
20 20 21 20 21 21 20 20 19 18 18 18 17 17 16 16 17 18 19 19 19 18 17 17 18 19 19 19 19 19 19 19 18 19 19 20 21 23 24 25 27 28 29 29 30 32 33 33 34 34 34 34 35 35 35 36 38 38 37 36 35 34 33 33 33 33 32 31 31
21 21 21 20 20 20 20 19 18 18 18 18 17 16 16 16 17 18 19 19 18 17 16 17 18 18 19 19 19 19 19 18 18 19 19 20 21 22 24 25 27 28 29 29 30 30 31 32 32 33 33 34 35 35 35 36 37 37 37 35 35 34 34 33 33 33 33 33 33
21 20 20 20 21 20 20 19 18 18 18 18 17 17 17 17 18 18 19 19 17 17 17 18 18 18 19 19 19 18 18 18 19 19 20 20 21 22 23 25 26 27 28 29 29 29 30 30 31 32 33 33 34 34 34 35 35 35 35 35 36 35 34 34 34 34 34 34 35
20 20 20 21 21 21 20 19 19 18 18 18 17 17 17 18 18 18 18 18 17 17 18 18 18 19 19 20 20 19 18 18 19 20 20 20 21 22 23 24 25 26 27 28 28 29 29 30 31 32 33 33 33 32 32 33 33 34 34 35 35 35 34 34 34 35 35 34 35
20 20 21 21 21 21 20 19 19 18 18 18 18 18 18 18 18 17 17 16 16 17 18 19 19 19 20 20 20 19 19 18 19 20 20 21 21 22 23 24 24 25 26 27 28 28 29 30 30 31 32 32 32 31 31 31 32 33 34 34 35 35 35 35 35 35 36 36 34
20 20 20 20 21 20 20 20 19 18 18 17 18 18 18 18 17 16 15 15 15 16 18 20 19 19 20 20 19 19 19 18 18 19 21 21 21 22 23 24 25 25 26 26 27 28 28 29 30 31 32 32 33 32 31 30 30 32 33 33 34 34 35 35 34 34 35 36 35
20 20 20 20 20 20 20 20 19 18 18 17 18 18 18 17 16 15 14 14 15 17 19 20 20 20 19 19 18 18 18 18 18 19 20 21 22 23 24 24 24 25 26 26 27 28 28 29 30 30 31 32 32 33 32 31 31 31 32 32 33 33 34 34 33 33 33 34 34
21 20 19 19 19 20 20 19 19 18 18 17 17 17 17 16 15 14 14 15 17 19 20 20 20 20 19 18 17 17 17 17 17 18 19 20 21 22 23 23 24 25 26 27 27 27 28 28 29 30 31 32 32 33 33 32 32 31 31 31 32 33 33 33 33 32 32 32 32
20 19 19 19 19 19 19 19 19 19 19 18 17 17 16 15 14 14 16 17 19 20 20 19 19 19 18 18 17 17 17 17 17 17 18 19 21 22 22 22 23 23 24 26 26 27 28 28 28 29 31 32 32 32 33 32 32 31 30 30 31 32 33 33 34 33 32 31 31
20 19 19 18 19 19 19 19 19 19 19 18 17 16 15 14 14 16 18 19 19 20 19 18 18 17 17 17 17 17 17 17 16 17 17 19 20 20 20 20 21 22 23 24 25 27 28 28 28 29 30 31 31 32 32 32 32 31 31 31 31 31 32 32 34 34 34 33 32
19 19 18 18 19 19 19 19 20 19 19 18 16 15 14 14 15 17 18 18 19 19 19 17 16 16 16 15 16 16 17 17 17 17 17 18 18 19 19 19 20 21 22 22 24 26 28 29 29 29 29 28 28 28 30 31 31 32 32 32 32 32 31 31 31 33 34 35 34
18 18 18 18 18 19 19 19 19 19 18 17 16 15 15 15 16 17 18 18 18 19 18 16 15 15 14 14 15 16 17 17 17 17 17 17 17 17 18 18 18 19 20 22 24 26 27 28 29 29 28 27 25 25 25 27 29 31 32 32 33 32 31 30 30 31 32 34 35
18 18 18 18 18 18 18 18 18 17 17 16 15 15 16 16 17 17 17 17 18 17 16 15 15 14 14 13 14 15 16 16 17 16 16 16 16 16 17 17 17 17 19 22 24 25 26 27 28 28 27 25 23 22 23 23 24 25 27 28 29 30 30 29 29 29 30 32 34
18 18 18 17 17 17 17 17 16 16 16 15 15 16 16 17 17 17 17 17 16 15 14 14 14 14 13 12 13 14 15 15 15 15 14 14 14 15 15 16 16 16 18 20 22 24 25 25 26 26 26 25 22 20 19 19 19 20 21 22 24 25 26 26 27 28 29 30 32
18 17 17 17 17 16 16 16 15 15 15 15 16 16 17 16 16 16 16 16 15 14 13 13 13 13 13 13 12 13 13 12 12 13 13 13 13 14 14 14 14 14 16 18 20 22 23 24 24 25 25 25 23 20 17 16 15 14 14 14 14 16 18 20 21 22 24 27 29
18 18 17 17 17 16 16 15 15 16 16 16 17 17 17 16 15 16 15 15 14 14 13 13 13 13 13 13 12 12 12 11 11 11 12 13 13 13 13 13 12 12 13 16 17 19 20 21 22 24 25 25 23 19 15 13 11 9 7 6 5 6 6 7 8 9 12 16 20
17 17 17 17 17 17 16 16 16 16 17 17 17 17 17 16 16 16 15 14 14 13 13 13 13 13 12 12 12 12 11 11 11 11 11 12 12 11 11 11 10 10 12 13 14 15 17 19 20 22 23 23 20 14 10 11 10 9 9 9 9 8 8 7 6 5 5 7 8
16 16 17 17 17 17 17 17 17 18 19 19 18 17 17 16 16 16 15 14 14 13 13 12 13 13 12 12 12 11 11 11 11 10 10 10 10 10 9 9 8 9 11 11 12 12 14 17 18 19 19 19 17 13 12 14 13 12 12 12 11 11 10 9 9 7 6 5 6
16 16 16 17 17 18 18 18 18 19 19 19 18 17 17 16 16 15 15 14 14 13 13 12 12 12 12 11 10 10 10 10 10 10 9 8 8 8 7 7 8 9 10 10 11 12 14 16 17 18 18 17 15 15 15 16 15 15 14 14 13 12 11 10 9 8 7 7 7
17 16 16 16 17 17 18 18 18 18 18 18 17 17 16 16 16 15 15 14 14 13 13 11 10 8 8 8 8 7 6 5 5 5 6 7 8 8 8 6 5 6 7 9 11 13 14 16 17 18 17 17 16 17 17 18 17 17 16 16 15 14 13 12 11 11 10 10 11
17 17 16 15 16 16 17 17 17 16 16 16 16 16 17 17 16 16 15 14 13 12 11 13 13 14 16 18 19 20 19 19 17 17 16 15 13 12 10 8 6 4 4 6 9 13 15 16 17 17 17 17 18 18 18 19 19 19 19 19 20 19 19 18 17 16 15 15 14
18 18 17 15 15 15 16 16 16 16 16 16 16 17 17 18 17 16 15 14 14 16 18 20 20 20 20 21 21 21 20 19 20 20 21 19 17 15 14 13 13 13 12 11 11 12 14 16 17 18 18 18 19 20 20 21 21 22 23 23 23 24 23 23 22 21 20 18 18
18 19 18 16 15 15 15 16 16 16 16 16 17 18 18 18 16 15 16 18 19 21 21 22 22 22 22 22 22 22 22 21 21 21 21 21 20 18 18 17 18 17 17 16 16 16 17 17 18 19 19 20 21 22 22 22 23 24 25 25 25 26 26 26 25 25 24 23 22
17 18 18 17 16 15 15 16 16 17 17 17 18 19 18 15 15 17 20 22 23 23 23 23 24 23 23 24 24 24 25 25 25 24 24 23 23 22 21 21 21 19 18 17 18 18 19 19 20 21 22 23 23 24 24 24 25 25 26 26 27 28 28 29 28 28 28 27 26
15 17 18 17 17 16 16 16 17 17 18 18 18 17 17 19 21 23 24 24 24 25 25 26 26 26 26 26 26 27 29 29 29 29 28 26 26 26 25 24 23 21 19 18 18 19 19 20 21 22 23 24 25 25 26 26 26 26 26 26 26 27 28 29 30 30 30 30 29
14 15 17 18 17 17 17 17 18 18 18 17 18 20 22 24 25 25 25 26 26 27 27 28 28 28 29 29 29 30 32 32 31 31 30 29 29 28 27 26 24 23 21 19 19 19 20 20 21 22 23 24 25 26 26 26 26 26 25 25 25 26 26 28 29 30 31 31 30
Wind_Direction
202 199 197 197 198 201 202 201 200 199 198 197 196 195 193 192 191 192 193 195 196 195 195 196 197 198 198 195 193 194 196 197 197 197 196 195 196 196 197 198 199 199 199 199 199 199 200 200 199 198 197 197 198 199 200 200 200 200 199 196 194 192 191 190 191 189 187 184 186
201 198 196 196 198 201 202 201 199 197 197 197 196 194 192 191 191 191 193 194 196 195 194 195 198 199 198 195 193 194 196 197 197 198 198 198 198 198 198 198 199 201 201 200 199 199 200 200 199 197 197 197 197 198 199 199 199 199 199 196 193 190 189 189 189 189 187 186 187
199 197 196 196 198 201 202 200 199 198 197 196 195 193 191 191 192 192 193 193 194 194 194 195 198 199 199 198 197 197 197 198 198 199 200 200 199 199 199 199 200 200 201 200 200 200 200 200 198 197 196 196 196 197 198 199 199 198 198 197 193 189 187 187 188 188 188 189 191
199 197 196 197 198 200 201 200 198 197 195 193 192 191 191 191 192 193 193 193 193 193 194 195 198 199 200 200 199 198 198 199 200 201 201 200 199 199 199 199 200 200 199 200 200 201 201 199 197 196 196 196 195 196 197 198 198 198 199 198 195 191 188 188 189 188 188 191 194
200 198 197 197 198 199 200 200 198 195 193 192 190 190 190 191 192 192 192 192 192 193 194 195 197 199 200 200 199 199 199 200 200 201 201 200 199 198 198 199 199 199 199 199 200 201 201 199 197 196 197 197 197 198 198 197 197 198 199 199 198 196 194 191 190 189 190 193 197
200 200 199 198 198 199 200 200 197 195 193 192 190 189 189 190 190 190 190 189 190 191 192 195 199 200 199 198 199 199 199 200 201 201 202 201 200 199 199 198 199 199 199 199 199 199 199 198 197 196 197 197 199 198 196 196 197 198 199 199 198 198 197 196 195 194 193 195 196
200 200 199 199 199 199 200 200 198 196 194 193 191 189 188 188 188 188 187 187 187 189 192 196 200 201 199 197 198 197 197 198 200 201 202 202 202 201 200 199 199 199 199 199 199 199 198 197 197 197 197 196 197 197 197 196 197 197 197 197 196 196 197 198 199 199 200 200 198
201 201 200 200 199 199 200 199 198 196 195 195 193 190 188 187 186 186 185 184 185 189 194 198 200 200 199 197 197 196 195 195 197 200 201 203 203 202 201 199 199 199 200 200 200 199 198 197 197 197 197 196 196 196 197 197 197 196 194 192 190 192 194 197 200 203 204 204 203
200 201 202 201 200 200 199 199 198 196 195 195 194 191 188 187 187 185 184 184 186 192 197 199 199 199 199 198 197 195 194 194 195 198 200 202 203 203 201 199 199 199 200 200 200 199 198 197 196 196 197 198 199 198 197 198 197 196 193 189 187 188 191 194 199 202 204 206 205
198 200 201 201 200 200 199 198 197 196 195 195 194 191 189 188 188 186 185 186 190 194 196 197 197 197 198 198 198 197 196 195 195 197 199 201 203 203 202 200 200 200 200 200 200 200 199 197 196 196 198 199 199 199 199 197 197 196 194 192 189 188 190 193 196 199 202 204 204
196 198 199 199 199 198 197 197 196 195 194 194 195 193 192 191 190 189 189 191 193 194 195 196 197 198 199 200 200 200 200 198 198 198 199 201 202 202 202 201 200 199 199 200 200 200 200 199 198 199 200 201 200 200 198 196 196 196 197 196 194 194 194 195 197 199 201 203 203
195 196 196 197 197 196 196 195 195 194 193 193 195 194 193 192 192 193 193 194 194 195 197 197 198 200 201 202 202 202 201 201 200 200 201 201 202 202 202 201 200 199 198 198 199 199 200 201 200 200 202 204 201 199 197 195 195 196 197 199 199 200 200 201 202 202 203 204 205
194 194 194 195 195 195 195 195 194 193 192 192 193 193 193 193 194 195 195 194 194 196 197 198 200 201 203 204 203 202 201 201 201 201 202 202 203 203 203 202 200 198 197 197 198 199 200 202 202 203 203 202 200 199 197 196 195 195 197 199 201 203 205 207 207 207 207 207 208
194 193 192 193 193 194 194 194 193 192 191 192 192 191 191 193 196 197 196 195 195 196 196 198 200 202 204 204 203 202 201 201 201 201 202 203 203 203 203 203 202 200 199 199 199 200 201 203 203 204 203 201 198 197 196 195 194 195 196 198 201 203 206 208 209 209 209 210 211
193 191 190 190 190 191 192 192 191 191 190 191 191 190 190 192 196 198 198 197 198 196 194 194 199 202 203 203 202 201 201 202 203 203 203 204 204 204 204 204 203 202 201 201 201 202 203 204 204 203 202 199 197 196 196 195 195 195 196 198 200 202 204 207 208 209 210 211 213
193 190 188 187 186 187 188 189 189 190 190 190 190 189 189 191 195 198 198 198 197 195 192 190 195 200 202 202 201 201 202 203 204 205 205 206 205 205 205 206 204 203 202 203 202 203 203 204 203 202 201 198 196 195 196 196 196 197 197 198 200 201 203 205 207 209 210 212 213
191 188 186 185 184 185 185 187 187 188 189 190 190 189 190 192 196 198 198 197 195 192 192 194 196 198 199 200 201 202 203 204 206 207 208 208 208 208 207 207 205 204 204 203 202 203 203 203 203 202 200 198 196 196 196 197 197 198 198 199 201 203 204 205 206 208 210 212 214
188 184 183 182 183 184 184 185 185 186 188 189 190 190 192 194 196 196 196 195 194 193 195 198 198 197 197 198 199 201 204 206 208 209 210 210 211 210 209 208 206 205 205 203 203 203 203 203 204 203 201 199 198 197 198 198 198 198 199 200 203 204 205 206 207 208 210 213 214
183 180 180 182 183 184 184 184 184 185 187 188 189 191 193 195 195 193 192 192 193 195 197 198 197 197 197 197 199 201 205 208 210 211 212 212 213 211 210 209 207 206 205 204 204 204 204 204 204 204 203 201 200 200 201 201 202 201 201 201 203 205 206 208 209 210 212 213 215
180 179 179 181 182 183 183 183 183 184 186 188 189 191 193 193 191 188 187 188 191 194 197 198 198 198 198 198 200 203 207 209 211 213 214 214 214 212 210 209 207 206 206 205 205 205 205 205 205 204 203 202 202 203 204 205 206 206 205 205 205 206 208 210 211 212 214 215 216
180 178 178 180 182 183 183 183 184 185 186 188 189 190 190 188 185 184 185 188 190 193 196 198 197 197 198 200 202 205 207 209 211 213 214 214 213 211 209 207 206 204 204 204 205 206 207 207 206 205 204 203 204 205 206 207 209 210 210 209 209 210 211 213 213 214 215 216 217
181 178 178 179 181 182 183 184 184 185 187 189 189 188 186 184 184 184 186 189 191 194 197 197 196 196 197 199 200 202 205 207 209 212 213 213 213 211 209 207 205 202 201 202 204 206 208 208 207 207 206 205 206 206 207 209 210 211 212 212 212 213 215 216 216 216 216 216 216
180 177 176 178 180 182 183 183 183 185 188 189 188 186 185 184 183 184 187 190 195 197 197 196 196 197 197 198 198 199 202 205 207 210 212 212 213 212 211 209 206 204 202 203 203 205 207 208 208 207 207 207 208 209 210 211 212 212 212 213 214 216 217 218 218 217 216 215 214
177 174 174 178 180 182 182 182 182 184 187 189 188 186 184 183 182 186 191 194 196 196 195 194 195 196 197 198 198 199 200 202 205 207 210 212 212 212 211 210 209 207 206 206 205 206 207 207 207 207 208 208 209 211 212 213 214 214 214 215 217 219 220 221 220 219 217 215 213
174 171 173 178 180 181 181 181 181 183 186 188 186 184 181 179 183 189 192 194 194 194 194 192 193 194 195 197 197 199 200 201 203 205 208 210 211 211 211 211 211 210 210 209 208 208 208 208 208 208 209 211 212 214 215 216 217 218 219 220 221 222 223 223 222 221 219 217 214
170 170 174 177 179 180 180 180 180 182 184 185 183 179 178 180 185 190 192 191 191 192 192 191 191 192 194 196 197 199 200 201 202 203 205 208 210 211 211 211 211 211 211 211 210 210 210 211 211 211 211 212 213 215 218 220 221 222 223 224 225 225 225 225 224 222 221 220 217
168 170 174 176 178 179 179 178 178 180 182 182 180 177 177 182 186 189 189 189 189 189 190 189 189 191 193 195 197 198 199 200 201 203 205 207 208 210 211 211 210 211 212 212 211 211 212 212 213 213 212 211 212 214 217 220 223 224 226 227 228 228 228 227 225 223 221 220 220
168 171 173 175 178 179 178 177 176 177 179 179 177 176 179 183 186 187 187 186 186 186 186 186 187 189 191 194 197 198 198 199 201 203 205 207 209 210 211 211 211 212 214 214 214 214 214 214 214 213 211 209 208 209 212 214 217 220 223 225 227 228 228 228 227 225 222 220 219
170 172 173 175 177 178 177 176 174 174 174 175 174 175 178 182 184 184 183 183 182 181 181 182 184 186 190 195 198 199 198 199 200 202 204 206 208 210 211 211 211 214 216 217 218 218 217 217 216 214 211 208 204 202 202 205 208 212 216 220 223 225 226 227 228 226 224 221 219
172 172 174 175 177 177 177 174 172 170 171 172 174 175 177 179 179 179 179 179 179 179 178 178 180 183 188 193 197 198 198 198 198 200 202 204 207 207 207 207 209 214 218 222 223 223 222 222 220 218 215 212 207 204 202 204 207 210 213 216 221 225 230 234 231 230 229 226 223
172 173 174 175 176 177 176 174 171 169 169 172 174 175 175 173 173 175 177 177 178 178 178 177 179 183 187 192 194 196 196 195 195 197 200 203 204 205 205 204 207 213 220 226 228 228 228 227 225 222 219 215 211 209 206 204 201 195 186 177 171 174 181 191 202 216 226 226 225
172 173 173 174 175 176 176 174 170 168 168 171 172 173 172 170 173 176 178 176 176 176 176 177 179 182 185 188 190 191 192 192 193 196 198 201 201 201 201 201 201 207 218 227 231 233 231 228 224 219 214 210 203 192 172 164 154 143 131 120 117 119 124 130 142 154 171 187 198
171 172 172 172 172 172 172 172 170 168 168 169 169 169 170 172 175 177 176 174 174 174 173 175 178 180 182 184 186 188 189 190 192 193 195 196 197 194 191 189 191 200 211 221 226 227 224 218 212 207 202 197 186 165 141 136 129 122 115 110 108 108 109 112 114 115 120 136 151
172 172 171 170 168 168 168 169 169 168 167 166 166 167 169 172 174 174 173 171 171 171 173 175 178 179 179 180 183 185 187 190 190 191 191 189 184 174 167 168 189 201 208 214 216 214 210 205 201 199 194 185 167 147 133 127 119 113 108 102 99 97 96 96 97 97 98 104 116
173 173 171 168 165 163 163 164 164 164 164 164 164 165 166 169 170 169 167 165 166 168 170 169 163 148 127 107 101 99 101 110 127 142 148 144 134 127 126 135 172 198 209 213 214 211 207 202 199 196 188 173 152 137 127 120 112 106 102 98 95 92 89 87 87 89 92 96 102
171 172 170 166 163 162 161 161 161 162 163 163 164 164 166 167 167 166 164 161 158 148 132 119 111 98 85 79 77 76 75 74 74 76 81 90 98 100 97 93 94 107 143 181 199 205 206 204 201 194 181 161 143 132 123 115 107 102 98 94 90 87 84 82 82 84 87 91 97
170 169 167 165 165 164 163 162 162 163 164 165 165 166 166 166 165 162 156 145 129 112 102 98 96 92 88 84 80 77 76 77 76 75 75 77 81 86 86 82 80 88 104 124 145 164 180 190 194 189 174 152 138 128 119 111 104 99 94 88 84 82 81 80 79 79 80 84 91
172 168 166 165 166 166 164 163 163 165 166 167 166 166 167 165 162 149 132 121 111 104 99 96 93 92 91 89 84 79 77 77 76 76 74 72 74 79 83 82 80 86 99 113 123 132 141 153 166 171 164 148 136 126 118 109 103 97 92 87 83 80 78 78 77 77 78 81 90
176 169 165 166 167 166 165 164 165 167 167 167 167 165 160 149 135 121 114 112 109 104 99 96 93 93 93 92 87 81 77 76 76 76 75 72 72 77 81 80 78 82 93 106 115 121 127 132 140 145 146 140 132 125 118 112 104 97 92 88 84 80 77 77 77 77 78 81 88
179 171 166 166 167 167 166 166 167 167 167 165 159 148 132 116 110 109 110 109 108 104 99 95 93 93 93 92 89 82 76 75 74 75 75 74 74 76 78 77 75 78 85 97 107 113 118 122 126 130 131 129 126 122 117 113 106 98 92 89 86 82 78 77 76 76 76 78 82
178 171 167 165 165 166 165 165 165 163 157 145 130 119 112 110 110 110 109 108 106 102 98 94 93 93 92 91 89 83 77 74 73 73 73 74 74 73 73 72 72 74 79 88 98 105 110 114 117 120 121 120 119 116 114 111 106 99 93 89 88 85 81 78 76 75 74 74 76
Height
666 668 669 671 672 674 675 677 678 680 681 683 684 685 687 688 689 690 692 693 695 696 697 699 700 702 703 704 705 707 709 710 712 714 715 717 719 721 723 725 726 728 730 731 733 735 737 738 739 740 742 743 744 746 747 749 750 751 753 754 755 756 757 759 760 762 763 765 768
664 666 668 670 671 673 675 676 677 679 680 681 682 684 685 686 687 689 690 692 693 694 696 697 699 700 702 703 704 706 707 709 711 712 714 716 717 719 721 723 725 726 728 730 731 733 735 736 738 739 740 741 743 744 745 746 748 750 751 752 753 754 755 757 758 760 762 764 766
663 665 666 668 670 672 673 675 676 677 679 680 681 682 683 685 686 687 689 690 691 693 694 696 698 699 700 702 703 705 706 708 709 711 713 714 716 718 719 721 723 724 726 728 730 731 733 735 736 737 738 740 740 742 743 745 746 748 749 750 751 753 754 755 757 759 760 762 765
661 663 665 667 669 670 671 673 674 676 677 679 680 681 682 683 684 685 687 689 690 691 693 694 696 698 699 701 702 703 705 706 708 710 711 713 714 716 717 719 721 723 724 726 728 730 731 733 734 735 736 737 739 740 741 743 745 746 748 749 750 751 752 754 756 757 759 761 763
660 661 663 665 667 669 670 672 673 675 676 677 678 680 681 682 683 685 686 687 689 690 691 693 695 696 698 700 700 702 704 705 707 709 710 711 713 714 715 717 719 721 722 724 726 727 729 731 732 733 734 735 737 738 740 741 743 745 746 747 748 750 751 753 754 756 758 760 762
659 660 662 664 666 668 670 671 672 674 675 676 677 678 680 681 682 683 685 686 687 689 690 692 694 695 697 698 699 701 702 704 706 707 709 710 711 713 714 715 717 719 720 722 724 725 727 729 730 731 732 734 735 737 738 740 741 743 744 745 746 748 750 751 753 755 757 759 761
658 659 661 663 665 667 669 670 671 672 674 675 676 677 678 679 681 682 683 685 686 688 690 691 693 694 695 697 698 699 701 702 704 706 707 709 710 712 713 714 716 717 719 720 722 724 725 727 728 730 730 732 734 735 737 739 740 741 742 743 744 746 748 750 752 754 756 757 759
657 659 660 662 664 665 667 669 670 671 672 673 674 675 677 678 680 681 682 684 685 687 689 690 692 693 694 695 697 698 699 701 702 704 706 707 709 710 712 713 714 716 717 719 720 722 724 725 726 728 729 730 732 733 735 737 739 740 741 742 743 745 747 749 751 753 755 756 758
656 658 659 661 662 664 666 667 669 670 671 672 673 674 676 677 679 680 681 683 684 686 688 689 691 692 693 694 695 697 698 699 701 703 705 706 707 709 710 712 713 715 716 718 719 720 722 724 725 726 727 728 730 732 733 735 737 739 740 741 742 744 746 748 750 752 753 755 756
654 656 658 660 661 663 665 666 668 669 670 671 672 674 675 677 678 679 680 682 684 685 687 689 690 691 692 694 695 696 697 698 700 701 703 705 706 707 709 710 711 713 715 716 718 720 721 722 723 724 725 727 728 730 732 734 735 737 739 740 741 743 744 746 748 750 751 753 754
654 655 657 659 660 662 664 665 666 668 669 670 672 673 675 676 677 678 680 681 683 685 687 688 689 690 691 693 694 695 696 697 699 700 702 703 705 706 707 709 710 711 713 715 716 718 720 721 722 723 724 725 727 729 730 732 734 735 737 739 740 741 743 745 746 748 750 751 752
653 654 656 658 659 661 663 664 665 667 668 670 671 672 674 675 676 677 679 681 683 684 686 687 688 689 690 692 693 694 695 696 698 699 700 702 703 705 706 707 709 710 711 713 715 717 718 719 720 721 723 724 726 727 728 730 731 733 735 736 738 740 741 743 745 746 748 749 751
652 654 655 657 658 660 661 663 664 666 667 669 670 671 672 674 675 677 679 680 682 684 685 685 687 688 690 691 692 693 694 695 697 698 699 701 702 704 705 706 707 709 710 711 713 715 716 717 719 720 721 722 724 725 726 728 729 731 733 734 736 738 740 741 743 745 746 748 750
651 653 654 656 657 659 660 662 663 665 666 667 669 670 671 673 675 676 678 679 681 682 683 685 686 687 689 690 691 692 693 695 696 697 698 700 701 702 704 705 706 707 709 710 711 713 714 715 716 718 719 720 721 723 724 725 727 728 730 732 733 735 737 740 741 743 745 746 748
650 652 653 655 656 658 659 661 662 664 665 666 668 669 671 672 674 675 677 678 680 681 682 683 685 686 688 689 690 691 692 694 695 696 697 698 700 701 702 704 705 706 707 708 710 711 712 713 714 716 717 718 719 720 722 724 725 726 728 729 731 733 735 738 740 741 743 744 746
649 650 652 654 655 657 658 660 661 663 664 665 667 668 670 671 673 674 676 677 678 680 681 682 684 685 687 688 689 690 692 693 694 695 696 697 699 700 701 702 703 704 705 707 708 709 710 711 713 714 715 716 717 719 720 722 723 724 726 728 730 731 734 735 738 739 741 742 744
648 649 651 652 654 655 657 659 660 662 663 664 666 667 669 670 672 673 675 676 677 678 680 681 683 685 686 687 688 690 691 692 693 694 695 696 697 699 700 701 702 703 704 705 707 708 709 710 711 713 714 715 716 717 718 720 721 723 724 726 728 730 732 734 735 737 739 740 741
647 648 649 651 653 654 656 658 659 660 662 663 665 666 668 669 671 672 674 675 676 677 679 680 682 684 685 686 687 689 690 691 692 693 694 695 696 697 699 700 701 702 703 704 705 707 708 710 711 712 713 714 715 716 717 719 720 721 723 725 727 729 730 732 733 735 736 738 739
645 647 648 650 652 653 655 656 658 659 661 663 664 666 667 668 670 671 672 674 675 676 678 680 681 683 684 685 686 687 689 690 691 692 693 694 695 696 697 699 700 701 702 703 705 706 707 708 710 711 712 713 715 716 717 718 720 721 722 723 725 727 729 730 731 733 734 736 737
644 645 647 649 650 652 654 655 657 659 660 662 663 665 666 667 669 670 671 673 674 676 677 679 680 682 683 684 685 686 688 689 690 691 692 693 694 695 696 697 699 700 701 702 704 705 706 708 709 710 711 713 714 715 717 718 719 720 721 722 724 725 727 728 730 731 733 734 735
643 644 646 648 649 651 653 655 656 658 659 661 662 664 665 666 668 670 671 672 674 675 676 678 679 680 682 683 684 685 687 688 689 690 691 692 693 694 695 696 697 699 700 701 703 704 705 706 708 709 710 711 713 714 715 717 718 720 720 721 723 724 725 727 728 730 731 732 734
642 644 645 647 649 651 652 654 655 657 659 660 661 663 664 666 667 669 670 671 673 674 676 677 678 680 681 682 683 685 686 687 688 689 690 691 692 693 694 695 696 697 699 700 701 703 704 705 707 708 709 710 711 713 714 715 717 718 719 720 721 722 724 725 726 728 729 730 731
641 643 645 647 649 650 652 653 655 657 658 659 661 662 663 665 666 668 669 671 672 674 675 676 677 679 680 681 683 684 685 686 687 688 689 690 691 692 693 695 695 696 697 699 700 701 703 704 705 706 708 709 710 711 713 714 715 716 718 719 720 721 722 724 725 726 727 728 729
640 642 644 646 648 649 651 653 654 656 657 659 660 661 662 664 665 667 669 670 672 673 674 675 677 678 679 680 682 683 684 685 686 688 689 690 690 692 693 694 695 695 696 698 699 700 701 702 704 705 706 707 708 710 711 712 714 715 716 717 718 720 721 722 723 724 725 726 727
640 642 644 645 647 649 650 652 653 655 657 658 659 660 662 663 665 667 668 670 671 672 674 675 676 677 679 680 681 682 684 685 686 687 688 689 690 691 692 693 694 695 696 697 697 698 700 701 702 703 705 706 707 709 710 711 712 713 715 716 717 718 719 720 721 722 723 724 725
639 641 643 645 646 648 649 651 653 654 656 657 659 660 661 663 665 666 668 669 670 672 673 675 675 677 678 679 680 682 683 684 685 686 687 688 689 690 691 692 693 694 695 696 696 697 699 700 701 702 703 705 706 708 709 710 711 712 713 714 715 716 718 719 720 720 721 722 723
639 641 643 644 646 647 649 650 652 653 655 656 658 659 661 663 665 666 667 669 670 671 673 674 675 676 677 679 680 681 682 683 685 685 687 688 689 690 690 691 692 693 694 695 695 697 698 699 700 701 702 704 705 706 707 709 710 711 712 713 714 715 716 717 717 718 719 720 721
639 640 642 644 645 647 648 649 651 653 654 656 657 659 661 663 664 665 667 668 669 671 672 673 675 676 677 679 680 680 682 683 684 685 686 687 688 689 690 691 692 693 693 694 695 696 697 698 699 700 701 702 704 705 706 707 708 709 710 711 712 713 714 715 716 717 717 719 720
639 640 642 644 645 646 647 648 650 652 654 655 657 659 661 662 664 665 666 668 669 670 671 673 674 675 677 678 679 680 681 682 684 685 685 686 687 688 690 690 691 692 693 693 694 695 696 697 698 700 700 702 703 704 705 706 707 708 709 710 711 712 713 714 715 715 716 717 718
638 640 642 643 644 645 646 648 649 651 653 655 657 659 660 662 663 665 666 667 669 670 671 672 674 675 676 678 679 680 681 682 683 684 685 686 687 688 689 690 691 692 692 693 694 695 696 697 698 699 700 701 703 704 705 706 707 708 709 710 711 712 712 713 714 715 715 716 716
638 640 641 643 644 645 646 647 649 651 653 655 657 659 660 662 663 665 666 667 669 670 671 672 674 675 676 678 679 680 681 682 683 684 685 686 686 687 689 690 690 691 692 692 693 694 695 696 697 699 700 701 702 704 705 706 707 708 708 709 709 710 710 711 713 714 715 715 716
638 639 641 642 644 645 646 648 649 651 653 655 657 659 660 662 663 665 666 667 669 670 671 672 674 675 676 678 679 680 680 682 683 684 685 685 686 687 688 689 690 691 691 692 693 694 695 696 697 698 700 701 702 704 705 704 705 706 707 708 709 710 710 711 712 712 713 714 715
638 639 640 642 643 644 646 648 649 651 653 654 656 658 660 661 663 665 666 667 669 670 671 673 674 675 676 677 679 680 680 681 682 684 684 685 686 687 688 689 690 690 690 691 693 694 695 696 697 698 699 700 701 702 702 704 705 706 708 709 710 710 711 712 712 713 714 715 715
638 639 640 641 642 644 645 647 649 650 652 654 656 658 659 661 663 664 666 667 669 670 671 673 674 675 676 678 679 680 681 682 683 683 684 685 686 687 687 688 689 690 691 691 693 694 695 695 696 697 698 699 700 702 703 704 705 707 708 709 710 711 712 712 713 714 715 715 716
638 639 639 640 642 643 645 647 648 650 652 653 655 657 659 661 663 664 666 667 669 670 672 673 675 675 677 678 679 680 681 682 683 684 685 685 686 686 687 688 689 690 691 692 692 693 694 695 695 696 697 699 700 702 703 704 706 707 709 710 711 712 713 713 714 715 715 716 716
637 638 639 640 641 642 644 646 648 650 651 653 655 657 659 661 663 664 666 667 669 670 672 673 674 675 675 676 677 678 680 681 682 684 684 685 686 687 688 689 690 691 692 693 693 693 694 694 695 696 697 699 700 702 704 705 707 709 710 711 712 713 714 715 715 716 716 717 718
636 637 639 639 641 642 644 645 647 649 651 653 655 657 659 661 663 664 666 667 669 670 671 673 674 675 677 678 680 681 682 683 683 684 685 686 687 688 689 691 692 692 693 694 695 695 695 695 695 696 697 699 701 703 704 706 708 710 711 712 714 715 715 716 717 717 718 719 719
635 637 638 639 640 641 643 644 647 649 651 653 655 657 659 661 663 664 666 667 669 670 672 674 675 677 678 680 681 682 684 685 685 686 687 688 690 690 691 693 694 695 695 695 696 697 697 697 696 696 697 699 701 703 705 707 709 710 712 714 715 716 717 718 719 720 720 721 721
635 636 638 639 640 641 643 644 647 649 651 653 655 657 659 661 663 664 666 667 669 671 673 675 677 679 680 681 682 684 685 686 687 688 690 691 692 693 693 695 696 697 697 697 697 698 698 698 698 698 698 699 701 703 705 708 710 712 714 715 717 718 719 720 721 722 723 724 723
635 636 637 639 639 641 643 645 647 649 651 653 655 657 659 661 663 665 666 668 670 673 675 677 679 680 681 682 684 686 687 688 689 690 692 694 694 695 695 696 698 699 699 699 699 700 700 700 700 700 700 701 702 704 706 708 711 713 715 717 719 720 721 723 724 725 725 726 727
635 636 637 638 639 641 643 645 647 649 652 654 656 658 659 661 664 665 668 670 672 674 676 678 680 681 682 684 686 688 690 691 692 694 695 695 696 696 697 699 700 700 701 701 701 701 701 702 702 702 702 703 704 706 707 709 712 715 717 719 720 722 724 725 726 727 728 730 730